1512586800.06,23672,3.5,73456.8,-5.61,-6.01,-6.01,0,*50
1512586801.28,23673,3.5,73440.3,-5.61,-6.05,-6.01,0,*55
1512586802.5,23674,3.5,73462.0,-5.61,-6.01,-6.01,0,*56
1512586803.72,23675,3.5,73478.8,-5.57,-5.97,-6.01,0,*5E
1512586804.94,23676,3.5,73470.8,-5.57,-6.01,-5.97,0,*5D
1512586806.16,23677,3.5,73468.0,-5.57,-6.01,-6.01,0,*50
1512586807.38,23678,3.5,73470.0,-5.57,-6.01,-5.97,0,*53
1512586808.6,23679,3.5,73470.8,-5.57,-5.97,-5.97,0,*5E
1512586809.82,23680,3.5,73470.8,-5.57,-6.01,-5.97,0,*54
1512586811.07,23681,3.5,73472.8,-5.57,-5.89,-5.97,0,*56
1512586812.33,23682,3.5,73466.3,-5.55,-5.85,-5.85,0,*58
1512586813.58,23683,3.5,73494.8,-5.55,-5.93,-5.85,0,*5E
1512586814.83,23684,3.5,73460.3,-5.55,-5.85,-5.93,0,*59
1512586816.08,23685,3.5,73478.5,-5.55,-5.85,-5.93,0,*58
1512586817.31,23686,3.5,73478.3,-5.55,-5.97,-5.93,0,*58
1512586818.53,23687,3.5,73474.5,-5.57,-5.97,-5.97,0,*5F
1512586819.78,23688,3.5,73478.8,-5.55,-5.93,-5.93,0,*52
1512586821.0,23689,3.5,73480.5,-5.57,-6.01,-5.97,0,*5D
1512586822.19,23690,3.5,73484.5,-5.55,-5.97,-5.97,0,*5B
1512586823.44,23691,3.5,73474.3,-5.55,-5.93,-5.93,0,*5A
1512586824.69,23692,3.5,73450.0,-5.55,-5.93,-5.93,0,*59
1512586825.95,23693,3.5,73452.8,-5.55,-5.93,-5.93,0,*58
1512586827.2,23694,3.5,73468.0,-5.55,-5.93,-5.93,0,*5F
1512586828.45,23695,3.5,73458.0,-5.55,-5.93,-5.93,0,*5E
1512586829.7,23696,3.5,73426.5,-5.55,-5.93,-5.93,0,*5D
1512586830.98,23697,3.5,73450.5,-5.53,-5.93,-5.93,0,*5A
1512586832.23,23698,3.5,73410.5,-5.53,-5.93,-5.97,0,*51
1512586833.51,23699,3.5,73410.5,-5.53,-5.93,-5.93,0,*54
1512586834.76,23700,3.5,73428.5,-5.51,-5.77,-5.81,0,*5E
1512586836.05,23701,3.5,73426.0,-5.53,-5.85,-5.81,0,*50
1512586837.33,23702,3.5,73452.8,-5.53,-5.85,-5.85,0,*57
1512586838.61,23703,3.5,73452.3,-5.53,-5.81,-5.81,0,*56
1512586839.89,23704,3.5,73456.0,-5.53,-5.81,-5.85,0,*55
1512586841.17,23705,3.5,73460.8,-5.53,-5.85,-5.81,0,*54
1512586842.42,23706,3.5,73464.0,-5.51,-5.77,-5.77,0,*51
1512586843.7,23707,3.5,73454.8,-5.53,-5.85,-5.81,0,*56
1512586844.95,23708,3.5,73460.5,-5.51,-5.81,-5.81,0,*5F
1512586846.2,23709,3.5,73458.0,-5.51,-5.81,-5.77,0,*57
1512586847.48,23710,3.5,73444.0,-5.53,-5.85,-5.85,0,*54
1512586848.73,23711,3.5,73446.0,-5.51,-5.81,-5.89,0,*5F
1512586850.02,23712,3.5,73434.5,-5.53,-5.85,-5.85,0,*56
1512586851.3,23713,3.5,73428.3,-5.53,-5.93,-5.85,0,*50
1512586852.58,23714,3.5,73428.8,-5.53,-5.85,-5.81,0,*54
1512586853.86,23715,3.5,73420.0,-5.49,-5.81,-5.77,0,*53
1512586855.11,23716,3.5,73410.8,-5.51,-5.89,-5.81,0,*58
1512586856.36,23717,3.5,73370.5,-5.51,-5.93,-5.89,0,*5A
1512586857.62,23718,3.5,73368.0,-5.51,-5.93,-5.93,0,*5E
1512586858.87,23719,3.5,73422.0,-5.51,-5.89,-5.93,0,*54
1512586860.12,23720,3.5,73424.0,-5.51,-5.93,-5.93,0,*55
1512586861.38,23721,3.5,73418.0,-5.51,-5.93,-5.89,0,*5F
1512586862.63,23722,3.5,73426.3,-5.51,-5.89,-5.89,0,*57
1512586863.88,23723,3.5,73424.5,-5.51,-5.93,-5.93,0,*56
1512586865.16,23724,3.5,73444.5,-5.49,-5.89,-5.93,0,*53
1512586866.43,23725,3.5,73454.8,-5.49,-5.89,-5.89,0,*59
1512586867.68,23726,3.5,73460.3,-5.49,-5.89,-6.01,0,*59
1512586868.96,23727,3.5,73452.5,-5.49,-5.93,-5.93,0,*5B
1512586870.24,23728,3.5,73428.0,-5.49,-5.93,-5.89,0,*5F
1512586871.49,23729,3.5,73402.0,-5.49,-5.93,-6.05,0,*59
1512586872.73,23730,3.5,73402.3,-5.49,-5.93,-6.05,0,*51
1512586873.95,23731,3.5,73416.5,-5.49,-6.05,-6.01,0,*58
1512586875.17,23732,3.5,73438.0,-5.49,-6.01,-6.01,0,*5F
1512586876.39,23733,3.5,73426.8,-5.49,-6.05,-6.05,0,*5E
1512586877.61,23734,3.5,73422.3,-5.49,-6.01,-6.01,0,*59
1512586878.83,23735,3.5,73400.5,-5.49,-6.01,-6.01,0,*58
1512586880.05,23736,3.5,73454.0,-5.49,-6.05,-6.01,0,*5F
1512586881.27,23737,3.5,73474.0,-5.45,-6.01,-5.97,0,*5A
1512586882.48,23738,3.5,73426.8,-5.49,-6.05,-6.05,0,*55
1512586883.71,23739,3.5,73408.0,-5.49,-6.13,-6.01,0,*57
1512586884.92,23740,3.5,73406.5,-5.49,-6.13,-6.05,0,*5D
1512586886.18,23741,3.5,73438.8,-5.49,-6.13,-6.19,0,*51
1512586887.4,23742,3.5,73442.5,-5.49,-6.13,-6.13,0,*58
1512586888.62,23743,3.5,73420.5,-5.49,-6.13,-6.05,0,*5E
1512586889.84,23744,3.5,73464.5,-5.45,-6.01,-5.97,0,*5E
1512586891.05,23745,3.5,73432.5,-5.49,-6.05,-6.01,0,*5B
1512586892.27,23746,3.5,73384.8,-5.49,-6.05,-6.01,0,*58
1512586893.49,23747,3.5,73412.0,-5.49,-6.01,-6.01,0,*5D
1512586894.71,23748,3.5,73408.5,-5.49,-6.05,-6.05,0,*52
1512586895.92,23749,3.5,73434.8,-5.49,-6.05,-6.05,0,*53
1512586897.14,23750,3.5,73432.3,-5.49,-6.05,-6.05,0,*5B
1512586898.36,23751,3.5,73412.5,-5.45,-5.97,-5.97,0,*56
1512586899.64,23752,3.5,73418.3,-5.45,-5.89,-5.89,0,*55
1512586900.92,23753,3.5,73438.3,-5.49,-5.93,-5.93,0,*58
1512586902.17,23754,3.5,73426.8,-5.49,-6.05,-5.93,0,*53
1512586903.45,23755,3.5,73426.8,-5.49,-5.93,-5.93,0,*5E
1512586904.72,23756,3.5,73386.5,-5.49,-5.93,-5.89,0,*56
1512586906.0,23757,3.5,73392.0,-5.49,-5.89,-5.93,0,*57
1512586907.25,23758,3.5,73408.8,-5.49,-5.93,-6.01,0,*5B
1512586908.53,23759,3.5,73432.5,-5.49,-5.93,-5.93,0,*52
1512586909.81,23760,3.5,73446.0,-5.45,-5.89,-5.85,0,*58
1512586911.08,23761,3.5,73418.0,-5.45,-5.77,-5.73,0,*51
1512586912.36,23762,3.5,73388.5,-5.45,-5.77,-5.73,0,*52
1512586913.63,23763,3.5,73390.5,-5.45,-5.77,-5.77,0,*57
1512586914.9,23764,3.5,73402.0,-5.45,-5.73,-5.73,0,*50
1512586916.16,23765,3.5,73392.8,-5.45,-5.73,-5.77,0,*55
1512586917.44,23766,3.5,73420.8,-5.45,-5.85,-5.73,0,*5B
1512586918.71,23767,3.5,73428.0,-5.45,-5.77,-5.77,0,*53
1512586919.99,23768,3.5,73420.3,-5.45,-5.77,-5.73,0,*58
1512586921.26,23769,3.5,73422.0,-5.45,-5.77,-5.77,0,*5D
1512586922.53,23770,3.5,73420.5,-5.45,-5.73,-5.73,0,*55
1512586923.8,23771,3.5,73418.8,-5.45,-5.77,-5.77,0,*54
1512586925.07,23772,3.5,73438.5,-5.45,-5.73,-5.73,0,*57
1512586926.34,23773,3.5,73434.5,-5.45,-5.73,-5.73,0,*56
1512586927.61,23774,3.5,73420.8,-5.45,-5.65,-5.65,0,*51
1512586928.87,23775,3.5,73442.3,-5.43,-5.61,-5.61,0,*56
1512586930.13,23776,3.5,73414.3,-5.45,-5.73,-5.73,0,*53
1512586931.41,23777,3.5,73408.5,-5.45,-5.77,-5.77,0,*52
1512586932.69,23778,3.5,73404.0,-5.45,-5.77,-5.85,0,*50
1512586933.96,23779,3.5,73376.3,-5.45,-5.77,-5.73,0,*58
1512586935.2,23780,3.5,73388.5,-5.43,-5.73,-5.73,0,*5C
1512586936.45,23781,3.5,73422.3,-5.43,-5.81,-5.73,0,*50
1512586937.73,23782,3.5,73430.3,-5.45,-5.85,-5.73,0,*51
1512586938.97,23783,3.5,73402.0,-5.43,-5.73,-5.73,0,*5F
1512586940.24,23784,3.5,73408.5,-5.45,-5.77,-5.77,0,*5E
1512586941.52,23785,3.5,73410.3,-5.41,-5.69,-5.61,0,*53
1512586942.77,23786,3.5,73428.3,-5.43,-5.61,-5.61,0,*5A
1512586944.02,23787,3.5,73422.8,-5.43,-5.69,-5.69,0,*5B
1512586945.25,23788,3.5,73436.0,-5.43,-5.69,-5.55,0,*5B
1512586946.5,23789,3.5,73448.5,-5.43,-5.73,-5.61,0,*56
1512586947.75,23790,3.5,73432.3,-5.43,-5.73,-5.61,0,*5E
1512586949.01,23791,3.5,73446.0,-5.41,-5.55,-5.61,0,*59
1512586950.29,23792,3.5,73468.8,-5.41,-5.61,-5.61,0,*5D
1512586951.56,23793,3.5,73466.8,-5.41,-5.69,-5.69,0,*5C
1512586952.85,23794,3.5,73470.5,-5.41,-5.69,-5.61,0,*53
1512586954.12,23795,3.5,73468.3,-5.41,-5.61,-5.69,0,*52
1512586955.39,23796,3.5,73476.8,-5.41,-5.73,-5.69,0,*52
1512586956.64,23797,3.5,73480.0,-5.39,-5.65,-5.65,0,*57
1512586957.91,23798,3.5,73484.0,-5.41,-5.69,-5.73,0,*5C
1512586959.18,23799,3.5,73486.5,-5.41,-5.73,-5.73,0,*56
1512586960.46,23800,3.5,73480.5,-5.41,-5.69,-5.69,0,*59
1512586961.73,23801,3.5,73480.0,-5.41,-5.69,-5.73,0,*53
1512586962.98,23802,3.5,73482.5,-5.39,-5.77,-5.69,0,*5B
1512586964.25,23803,3.5,73466.5,-5.41,-5.73,-5.81,0,*57
1512586965.5,23804,3.5,73460.5,-5.39,-5.81,-5.81,0,*52
1512586966.75,23805,3.5,73472.8,-5.39,-5.81,-5.89,0,*5B
1512586968.03,23806,3.5,73478.8,-5.41,-5.93,-5.93,0,*5F
1512586969.31,23807,3.5,73472.8,-5.41,-5.85,-5.93,0,*59
1512586970.53,23808,3.5,73466.8,-5.41,-5.97,-5.97,0,*51
1512586971.78,23809,3.5,73464.5,-5.39,-5.93,-5.89,0,*54
1512586973.03,23810,3.5,73470.3,-5.39,-5.93,-5.93,0,*57
1512586974.29,23811,3.5,73472.8,-5.39,-5.93,-5.93,0,*56
1512586975.51,23812,3.5,73472.3,-5.39,-5.93,-6.01,0,*5D
1512586976.73,23813,3.5,73472.5,-5.41,-5.97,-6.05,0,*53
1512586977.95,23814,3.5,73476.0,-5.41,-6.05,-6.05,0,*5C
1512586979.2,23815,3.5,73474.3,-5.41,-6.19,-6.09,0,*5C
1512586980.42,23816,3.5,73480.3,-5.41,-6.09,-6.09,0,*5E
1512586981.67,23817,3.5,73482.0,-5.41,-6.05,-6.19,0,*52
1512586982.92,23818,3.5,73476.3,-5.41,-6.19,-6.09,0,*51
1512586984.15,23819,3.5,73478.5,-5.41,-6.09,-6.05,0,*5D
1512586985.4,23820,3.5,73468.5,-5.41,-6.19,-6.09,0,*5A
1512586986.59,23821,3.5,73458.5,-5.39,-6.01,-6.01,0,*55
1512586987.82,23822,3.5,73464.0,-5.41,-6.09,-6.05,0,*55
1512586989.04,23823,3.5,73466.8,-5.41,-6.09,-6.05,0,*54
1512586990.26,23824,3.5,73446.0,-5.41,-6.05,-6.09,0,*53
1512586991.48,23825,3.5,73482.8,-5.41,-6.09,-6.05,0,*52
1512586992.77,23826,3.5,73472.5,-5.41,-6.19,-6.19,0,*5D
1512586994.04,23827,3.5,73454.3,-5.41,-6.23,-6.19,0,*55
1512586995.29,23828,3.5,73438.8,-5.43,-6.19,-6.19,0,*51
1512586996.55,23829,3.5,73450.5,-5.41,-6.09,-6.19,0,*53
1512586997.83,23830,3.5,73458.8,-5.41,-6.19,-6.19,0,*5A
1512586999.1,23831,3.5,73448.8,-5.45,-6.23,-6.23,0,*5F
1512587000.32,23832,3.5,73452.5,-5.45,-6.13,-6.13,0,*5C
1512587001.52,23833,3.5,73458.3,-5.43,-6.09,-6.09,0,*5B
1512587002.72,23834,3.5,73464.0,-5.43,-6.05,-6.09,0,*50
1512587003.91,23835,3.5,73450.5,-5.43,-6.09,-6.09,0,*5D
1512587005.14,23836,3.5,73446.8,-5.45,-6.13,-6.13,0,*58
1512587006.36,23837,3.5,73444.3,-5.41,-6.09,-6.09,0,*5D
1512587007.64,23838,3.5,73452.8,-5.41,-6.23,-6.19,0,*5B
1512587008.92,23839,3.5,73432.5,-5.41,-6.23,-6.19,0,*5A
1512587010.19,23840,3.5,73424.8,-5.41,-6.23,-6.19,0,*54
1512587011.46,23841,3.5,73434.0,-5.45,-6.27,-6.27,0,*58
1512587012.7,23842,3.5,73446.3,-5.43,-6.23,-6.23,0,*5D
1512587013.95,23843,3.5,73456.3,-5.43,-6.23,-6.23,0,*5C
1512587015.19,23844,3.5,73440.0,-5.43,-6.23,-6.23,0,*5B
1512587016.43,23845,3.5,73424.8,-5.43,-6.23,-6.23,0,*5A
1512587017.7,23846,3.5,73432.3,-5.45,-6.27,-6.27,0,*5F
1512587018.95,23847,3.5,73448.0,-5.43,-6.23,-6.19,0,*51
1512587020.19,23848,3.5,73440.3,-5.43,-6.27,-6.23,0,*53
1512587021.43,23849,3.5,73436.8,-5.43,-6.27,-6.23,0,*52
1512587022.66,23850,3.5,73456.5,-5.45,-6.31,-6.31,0,*58
1512587023.89,23851,3.5,73434.3,-5.45,-6.31,-6.31,0,*59
1512587025.14,23852,3.5,73448.5,-5.43,-6.27,-6.27,0,*5C
1512587026.37,23853,3.5,73454.8,-5.45,-6.31,-6.31,0,*5B
1512587027.61,23854,3.5,73452.0,-5.43,-6.27,-6.27,0,*5A
1512587028.84,23855,3.5,73456.3,-5.45,-6.39,-6.31,0,*55
1512587030.08,23856,3.5,73456.0,-5.43,-6.27,-6.27,0,*58
1512587031.3,23857,3.5,73458.3,-5.45,-6.39,-6.39,0,*5F
1512587032.53,23858,3.5,73462.3,-5.45,-6.39,-6.31,0,*58
1512587033.76,23859,3.5,73466.3,-5.45,-6.39,-6.31,0,*59
1512587034.99,23860,3.5,73474.3,-5.45,-6.31,-6.31,0,*5B
1512587036.22,23861,3.5,73472.8,-5.45,-6.31,-6.31,0,*5A
1512587037.45,23862,3.5,73466.3,-5.45,-6.31,-6.39,0,*51
1512587038.67,23863,3.5,73458.0,-5.43,-6.35,-6.27,0,*5D
1512587039.9,23864,3.5,73452.3,-5.45,-6.31,-6.31,0,*5F
1512587041.13,23865,3.5,73454.5,-5.45,-6.31,-6.39,0,*56
1512587042.36,23866,3.5,73466.3,-5.45,-6.31,-6.31,0,*5D
1512587043.59,23867,3.5,73466.3,-5.45,-6.31,-6.31,0,*5C
1512587044.82,23868,3.5,73440.3,-5.45,-6.31,-6.31,0,*53
1512587046.05,23869,3.5,73488.8,-5.45,-6.31,-6.31,0,*52
1512587047.28,23870,3.5,73452.0,-5.45,-6.31,-6.31,0,*5A
1512587048.51,23871,3.5,73432.3,-5.45,-6.39,-6.31,0,*53
1512587049.74,23872,3.5,73426.3,-5.45,-6.31,-6.31,0,*58
1512587050.97,23873,3.5,73436.5,-5.45,-6.31,-6.31,0,*59
1512587052.2,23874,3.5,73436.5,-5.45,-6.31,-6.31,0,*5E
1512587053.43,23875,3.5,73442.0,-5.45,-6.39,-6.31,0,*57
1512587054.66,23876,3.5,73452.5,-5.49,-6.35,-6.35,0,*50
1512587055.88,23877,3.5,73446.0,-5.45,-6.39,-6.31,0,*55
1512587057.11,23878,3.5,73450.5,-5.45,-6.31,-6.39,0,*5A
1512587058.34,23879,3.5,73450.0,-5.45,-6.39,-6.31,0,*5B
1512587059.57,23880,3.5,73452.8,-5.45,-6.31,-6.31,0,*55
1512587060.8,23881,3.5,73444.8,-5.45,-6.31,-6.31,0,*54
1512587062.03,23882,3.5,73442.3,-5.45,-6.39,-6.31,0,*5F
1512587063.25,23883,3.5,73436.0,-5.49,-6.35,-6.35,0,*5A
1512587064.48,23884,3.5,73456.5,-5.45,-6.39,-6.39,0,*51
1512587065.7,23885,3.5,73444.3,-5.45,-6.39,-6.43,0,*5D
1512587066.93,23886,3.5,73422.3,-5.45,-6.31,-6.43,0,*56
1512587068.15,23887,3.5,73402.8,-5.45,-6.39,-6.43,0,*5F
1512587069.38,23888,3.5,73480.8,-5.45,-6.43,-6.51,0,*5E
1512587070.6,23889,3.5,73440.5,-5.49,-6.47,-6.47,0,*50
1512587071.83,23890,3.5,73432.0,-5.49,-6.47,-6.47,0,*58
1512587073.05,23891,3.5,73434.5,-5.49,-6.43,-6.43,0,*59
1512587074.27,23892,3.5,73428.3,-5.49,-6.47,-6.35,0,*5F
1512587075.5,23893,3.5,73430.8,-5.49,-6.43,-6.43,0,*5B
1512587076.72,23894,3.5,73426.5,-5.49,-6.43,-6.43,0,*5C
1512587077.94,23895,3.5,73426.8,-5.49,-6.47,-6.43,0,*59
1512587079.17,23896,3.5,73426.3,-5.49,-6.47,-6.55,0,*5D
1512587080.39,23897,3.5,73438.8,-5.49,-6.47,-6.55,0,*5C
1512587081.59,23898,3.5,73448.8,-5.51,-6.47,-6.47,0,*59
1512587082.81,23899,3.5,73398.8,-5.49,-6.47,-6.47,0,*51
1512587084.01,23900,3.5,73402.5,-5.51,-6.43,-6.43,0,*59
1512587085.21,23901,3.5,73414.3,-5.51,-6.35,-6.35,0,*58
1512587086.41,23902,3.5,73412.0,-5.51,-6.43,-6.43,0,*5B
1512587087.61,23903,3.5,73420.5,-5.51,-6.43,-6.47,0,*5E
1512587088.82,23904,3.5,73434.5,-5.51,-6.55,-6.47,0,*5E
1512587090.01,23905,3.5,73442.3,-5.51,-6.47,-6.47,0,*5C
1512587091.21,23906,3.5,73446.0,-5.51,-6.47,-6.47,0,*5F
1512587092.41,23907,3.5,73442.5,-5.51,-6.47,-6.47,0,*5E
1512587093.61,23908,3.5,73440.5,-5.51,-6.47,-6.47,0,*51
1512587094.81,23909,3.5,73444.3,-5.51,-6.47,-6.47,0,*50
1512587096.01,23910,3.5,73450.5,-5.51,-6.47,-6.43,0,*5C
1512587097.21,23911,3.5,73456.0,-5.51,-6.35,-6.35,0,*59
1512587098.41,23912,3.5,73454.5,-5.51,-6.43,-6.43,0,*5A
1512587099.63,23913,3.5,73452.3,-5.53,-6.39,-6.47,0,*50
1512587100.83,23914,3.5,73458.3,-5.51,-6.39,-6.47,0,*55
1512587102.05,23915,3.5,73464.0,-5.53,-6.39,-6.39,0,*5F
1512587103.27,23916,3.5,73460.5,-5.53,-6.39,-6.39,0,*5C
1512587104.49,23917,3.5,73462.3,-5.53,-6.39,-6.39,0,*5D
1512587105.72,23918,3.5,73460.3,-5.53,-6.39,-6.47,0,*5B
1512587106.94,23919,3.5,73460.0,-5.53,-6.39,-6.47,0,*5A
1512587108.17,23920,3.5,73462.0,-5.53,-6.47,-6.39,0,*50
1512587109.39,23921,3.5,73462.3,-5.53,-6.39,-6.39,0,*58
1512587110.59,23922,3.5,73458.0,-5.51,-6.35,-6.43,0,*58
1512587111.79,23923,3.5,73456.0,-5.51,-6.35,-6.43,0,*59
1512587113.02,23924,3.5,73462.8,-5.53,-6.39,-6.39,0,*5D
1512587114.24,23925,3.5,73456.0,-5.53,-6.39,-6.39,0,*5C
1512587115.46,23926,3.5,73458.8,-5.53,-6.47,-6.39,0,*56
1512587116.66,23927,3.5,73458.8,-5.51,-6.35,-6.35,0,*5C
1512587117.88,23928,3.5,73450.8,-5.53,-6.47,-6.39,0,*58
1512587119.11,23929,3.5,73450.8,-5.53,-6.39,-6.47,0,*59
1512587120.34,23930,3.5,73454.0,-5.53,-6.47,-6.47,0,*58
1512587121.56,23931,3.5,73454.5,-5.53,-6.47,-6.47,0,*59
1512587122.76,23932,3.5,73458.3,-5.51,-6.35,-6.43,0,*59
1512587123.99,23933,3.5,73452.8,-5.53,-6.47,-6.47,0,*5B
1512587125.21,23934,3.5,73456.0,-5.53,-6.39,-6.39,0,*5C
1512587126.43,23935,3.5,73454.0,-5.53,-6.39,-6.39,0,*5D
1512587127.65,23936,3.5,73466.0,-5.53,-6.47,-6.39,0,*57
1512587128.88,23937,3.5,73440.5,-5.53,-6.47,-6.39,0,*56
1512587130.1,23938,3.5,73452.3,-5.53,-6.39,-6.47,0,*59
1512587131.33,23939,3.5,73450.0,-5.53,-6.47,-6.47,0,*51
1512587132.55,23940,3.5,73442.3,-5.53,-6.47,-6.39,0,*56
1512587133.74,23941,3.5,73442.5,-5.55,-6.39,-6.39,0,*58
1512587134.93,23942,3.5,73460.0,-5.55,-6.39,-6.39,0,*5B
1512587136.12,23943,3.5,73438.0,-5.55,-6.47,-6.39,0,*53
1512587137.34,23944,3.5,73436.0,-5.53,-6.39,-6.39,0,*5B
1512587138.57,23945,3.5,73442.0,-5.53,-6.39,-6.39,0,*5A
1512587139.79,23946,3.5,73444.0,-5.53,-6.39,-6.39,0,*59
1512587141.01,23947,3.5,73444.3,-5.53,-6.39,-6.35,0,*54
1512587142.21,23948,3.5,73462.5,-5.55,-6.35,-6.35,0,*51
1512587143.42,23949,3.5,73436.0,-5.55,-6.35,-6.35,0,*50
1512587144.61,23950,3.5,73420.5,-5.55,-6.39,-6.35,0,*54
1512587145.83,23951,3.5,73430.8,-5.57,-6.43,-6.39,0,*56
1512587147.03,23952,3.5,73422.5,-5.55,-6.39,-6.35,0,*56
1512587148.22,23953,3.5,73434.5,-5.55,-6.39,-6.35,0,*57
1512587149.42,23954,3.5,73416.3,-5.55,-6.39,-6.35,0,*50
1512587150.61,23955,3.5,73418.0,-5.55,-6.43,-6.39,0,*50
1512587151.81,23956,3.5,73428.3,-5.55,-6.31,-6.35,0,*5A
1512587153.01,23957,3.5,73468.5,-5.55,-6.35,-6.39,0,*53
1512587154.21,23958,3.5,73432.0,-5.55,-6.35,-6.35,0,*50
1512587155.43,23959,3.5,73426.3,-5.57,-6.39,-6.39,0,*53
1512587156.63,23960,3.5,73442.5,-5.55,-6.35,-6.35,0,*5B
1512587157.84,23961,3.5,73450.5,-5.55,-6.35,-6.31,0,*5E
1512587159.04,23962,3.5,73432.0,-5.55,-6.35,-6.35,0,*59
1512587160.24,23963,3.5,73444.3,-5.55,-6.35,-6.31,0,*5C
1512587161.44,23964,3.5,73432.8,-5.55,-6.31,-6.35,0,*5B
1512587162.64,23965,3.5,73428.8,-5.55,-6.35,-6.35,0,*5E
1512587163.84,23966,3.5,73418.5,-5.55,-6.31,-6.35,0,*59
1512587165.05,23967,3.5,73458.8,-5.55,-6.35,-6.31,0,*58
1512587166.25,23968,3.5,73414.0,-5.55,-6.35,-6.35,0,*53
1512587167.45,23969,3.5,73390.8,-5.55,-6.31,-6.35,0,*56
1512587168.65,23970,3.5,73404.3,-5.55,-6.31,-6.35,0,*5E
1512587169.85,23971,3.5,73394.3,-5.55,-6.35,-6.35,0,*5B
1512587171.04,23972,3.5,73424.5,-5.55,-6.39,-6.39,0,*58
1512587172.24,23973,3.5,73426.0,-5.55,-6.35,-6.35,0,*59
1512587173.45,23974,3.5,73426.3,-5.55,-6.35,-6.31,0,*5A
1512587174.65,23975,3.5,73432.5,-5.55,-6.35,-6.31,0,*5B
1512587175.85,23976,3.5,73444.8,-5.55,-6.31,-6.35,0,*58
1512587177.05,23977,3.5,73428.0,-5.55,-6.35,-6.35,0,*5D
1512587178.25,23978,3.5,73432.8,-5.55,-6.35,-6.35,0,*52
1512587179.46,23979,3.5,73440.5,-5.55,-6.35,-6.35,0,*53
1512587180.66,23980,3.5,73438.3,-5.55,-6.35,-6.31,0,*51
1512587181.86,23981,3.5,73444.0,-5.55,-6.35,-6.35,0,*54
1512587183.08,23982,3.5,73450.0,-5.57,-6.39,-6.35,0,*59
1512587184.28,23983,3.5,73444.5,-5.55,-6.31,-6.35,0,*52
1512587185.51,23984,3.5,73436.8,-5.57,-6.39,-6.35,0,*5F
1512587186.7,23985,3.5,73444.3,-5.55,-6.31,-6.35,0,*54
1512587187.91,23986,3.5,73444.0,-5.55,-6.35,-6.35,0,*53
1512587189.11,23987,3.5,73460.0,-5.55,-6.35,-6.35,0,*52
1512587190.33,23988,3.5,73444.5,-5.55,-6.31,-6.23,0,*5E
1512587191.54,23989,3.5,73446.0,-5.55,-6.31,-6.23,0,*5F
1512587192.74,23990,3.5,73454.5,-5.55,-6.31,-6.35,0,*50
1512587193.95,23991,3.5,73454.5,-5.55,-6.31,-6.31,0,*55
1512587195.15,23992,3.5,73458.8,-5.55,-6.35,-6.31,0,*52
1512587196.35,23993,3.5,73448.3,-5.55,-6.35,-6.31,0,*53
1512587197.58,23994,3.5,73444.3,-5.55,-6.23,-6.31,0,*53
1512587198.78,23995,3.5,73458.0,-5.55,-6.31,-6.31,0,*51
1512587199.98,23996,3.5,73454.0,-5.55,-6.35,-6.31,0,*56
1512587201.18,23997,3.5,73460.0,-5.55,-6.31,-6.31,0,*53
1512587202.41,23998,3.5,73462.8,-5.57,-6.35,-6.35,0,*5E
1512587203.63,23999,3.5,73460.5,-5.55,-6.31,-6.23,0,*5E
1512587204.83,24000,3.5,73462.8,-5.55,-6.31,-6.31,0,*53
1512587206.05,24001,3.5,73462.0,-5.57,-6.39,-6.35,0,*5C
1512587207.28,24002,3.5,73460.3,-5.57,-6.35,-6.35,0,*53
1512587208.48,24003,3.5,73464.3,-5.55,-6.31,-6.31,0,*50
1512587209.68,24004,3.5,73460.8,-5.55,-6.31,-6.35,0,*53
1512587210.91,24005,3.5,73458.5,-5.55,-6.23,-6.31,0,*55
1512587212.11,24006,3.5,73470.8,-5.55,-6.31,-6.31,0,*55
1512587213.31,24007,3.5,73442.0,-5.55,-6.35,-6.31,0,*50
1512587214.51,24008,3.5,73428.0,-5.55,-6.31,-6.31,0,*5B
1512587215.74,24009,3.5,73428.0,-5.55,-6.23,-6.31,0,*59
1512587216.94,24010,3.5,73436.3,-5.55,-6.31,-6.31,0,*52
1512587218.14,24011,3.5,73458.0,-5.55,-6.35,-6.39,0,*5F
1512587219.34,24012,3.5,73448.8,-5.55,-6.35,-6.31,0,*54
1512587220.57,24013,3.5,73426.0,-5.57,-6.35,-6.35,0,*53
1512587221.79,24014,3.5,73456.5,-5.55,-6.31,-6.23,0,*55
1512587223.04,24015,3.5,73438.3,-5.55,-6.19,-6.19,0,*57
1512587224.28,24016,3.5,73424.8,-5.55,-6.23,-6.23,0,*54
1512587225.53,24017,3.5,73448.5,-5.55,-6.23,-6.19,0,*5C
1512587226.77,24018,3.5,73442.0,-5.55,-6.23,-6.19,0,*53
1512587228.0,24019,3.5,73426.5,-5.55,-6.31,-6.19,0,*51
1512587229.24,24020,3.5,73452.0,-5.55,-6.23,-6.19,0,*58
1512587230.5,24021,3.5,73430.5,-5.55,-6.19,-6.19,0,*50
1512587231.78,24022,3.5,73420.8,-5.53,-6.19,-6.19,0,*55
1512587233.02,24023,3.5,73456.5,-5.55,-6.23,-6.19,0,*5B
1512587234.29,24024,3.5,73424.3,-5.57,-6.27,-6.23,0,*53
1512587235.53,24025,3.5,73422.3,-5.55,-6.23,-6.23,0,*54
1512587236.77,24026,3.5,73428.5,-5.55,-6.19,-6.23,0,*5E
1512587238.02,24027,3.5,73450.5,-5.55,-6.19,-6.19,0,*56
1512587239.3,24028,3.5,73454.5,-5.53,-6.19,-6.19,0,*5F
1512587240.55,24029,3.5,73436.5,-5.55,-6.19,-6.23,0,*51
1512587241.79,24030,3.5,73444.5,-5.55,-6.19,-6.23,0,*59
1512587243.04,24031,3.5,73444.0,-5.55,-6.19,-6.23,0,*58
1512587244.28,24032,3.5,73434.5,-5.55,-6.23,-6.23,0,*52
1512587245.52,24033,3.5,73448.0,-5.55,-6.23,-6.23,0,*53
1512587246.76,24034,3.5,73434.3,-5.55,-6.19,-6.23,0,*5D
1512587248.0,24035,3.5,73430.8,-5.55,-6.23,-6.23,0,*55
1512587249.24,24036,3.5,73410.8,-5.55,-6.23,-6.23,0,*56
1512587250.49,24037,3.5,73400.8,-5.55,-6.19,-6.19,0,*57
1512587251.69,24038,3.5,73396.3,-5.55,-6.09,-6.09,0,*58
1512587252.89,24039,3.5,73416.0,-5.55,-6.09,-6.09,0,*59
1512587254.08,24040,3.5,73416.3,-5.55,-6.09,-6.09,0,*57
1512587255.34,24041,3.5,73438.0,-5.53,-6.09,-6.19,0,*51
1512587256.62,24042,3.5,73432.3,-5.53,-6.19,-6.19,0,*53
1512587257.84,24043,3.5,73434.5,-5.51,-6.13,-6.19,0,*5A
1512587259.1,24044,3.5,73448.8,-5.53,-6.09,-6.19,0,*54
1512587260.37,24045,3.5,73440.8,-5.53,-6.19,-6.23,0,*5D
1512587261.65,24046,3.5,73442.0,-5.53,-6.19,-6.23,0,*5E
1512587262.92,24047,3.5,73446.0,-5.53,-6.23,-6.23,0,*56
1512587264.2,24048,3.5,73454.5,-5.53,-6.19,-6.19,0,*59
1512587265.47,24049,3.5,73454.3,-5.53,-6.23,-6.19,0,*51
1512587266.76,24050,3.5,73418.5,-5.53,-6.19,-6.19,0,*50
1512587268.03,24051,3.5,73438.0,-5.53,-6.23,-6.23,0,*51
1512587269.3,24052,3.5,73448.8,-5.53,-6.19,-6.23,0,*5B
1512587270.55,24053,3.5,73454.8,-5.53,-6.31,-6.23,0,*50
1512587271.8,24054,3.5,73444.5,-5.53,-6.31,-6.19,0,*5E
1512587273.07,24055,3.5,73436.5,-5.53,-6.23,-6.23,0,*55
1512587274.34,24056,3.5,73440.5,-5.53,-6.23,-6.23,0,*56
1512587275.61,24057,3.5,73424.5,-5.53,-6.23,-6.23,0,*57
1512587276.88,24058,3.5,73460.3,-5.53,-6.23,-6.23,0,*58
1512587278.12,24059,3.5,73420.5,-5.55,-6.23,-6.23,0,*5F
1512587279.36,24060,3.5,73426.8,-5.55,-6.23,-6.23,0,*55
1512587280.61,24061,3.5,73438.0,-5.53,-6.23,-6.31,0,*51
1512587281.82,24062,3.5,73454.3,-5.51,-6.31,-6.31,0,*53
1512587283.02,24063,3.5,73426.8,-5.55,-6.35,-6.31,0,*52
1512587284.25,24064,3.56,73416.0,-5.53,-6.31,-6.31,0,*57
1512587285.47,24065,3.5,73406.3,-5.55,-6.31,-6.23,0,*53
1512587286.69,24066,3.5,73420.3,-5.55,-6.31,-6.23,0,*50
1512587287.93,24067,3.5,73442.8,-5.55,-6.23,-6.23,0,*52
1512587289.2,24068,3.5,73448.8,-5.53,-6.23,-6.23,0,*5B
1512587290.47,24069,3.5,73414.5,-5.53,-6.23,-6.19,0,*53
1512587291.75,24070,3.5,73430.0,-5.53,-6.19,-6.19,0,*52
1512587293.03,24071,3.5,73462.3,-5.53,-6.19,-6.19,0,*53
1512587294.32,24072,3.5,73434.5,-5.53,-6.19,-6.19,0,*50
1512587295.54,24073,3.5,73440.8,-5.51,-6.19,-6.05,0,*5E
1512587296.79,24074,3.5,73462.5,-5.53,-6.09,-6.19,0,*57
1512587298.04,24075,3.5,73448.8,-5.53,-6.19,-6.05,0,*5A
1512587299.29,24076,3.5,73446.3,-5.53,-6.19,-6.09,0,*55
1512587300.54,24077,3.5,73454.3,-5.53,-6.19,-6.05,0,*58
1512587301.77,24078,3.5,73458.0,-5.53,-6.09,-6.09,0,*5A
1512587302.99,24079,3.5,73458.5,-5.53,-6.05,-6.09,0,*57
1512587304.18,24080,3.5,73466.8,-5.51,-6.05,-6.01,0,*5B
1512587305.4,24081,3.5,73462.5,-5.53,-6.09,-6.05,0,*50
1512587306.6,24082,3.5,73470.3,-5.51,-6.01,-6.05,0,*59
1512587307.79,24083,3.5,73464.5,-5.51,-6.05,-6.05,0,*5C
1512587309.01,24084,3.5,73470.8,-5.53,-6.05,-5.97,0,*51
1512587310.21,24085,3.5,73468.5,-5.51,-6.05,-6.01,0,*5E
1512587311.4,24086,3.5,73472.0,-5.51,-6.05,-6.05,0,*59
1512587312.61,24087,3.5,73468.8,-5.53,-6.05,-6.05,0,*5A
1512587313.87,24088,3.5,73470.3,-5.53,-6.09,-6.19,0,*54
1512587315.06,24089,3.5,73466.5,-5.51,-6.05,-6.05,0,*56
1512587316.29,24090,3.5,73468.5,-5.53,-6.09,-6.09,0,*5C
1512587317.49,24091,3.5,73452.5,-5.51,-6.13,-6.13,0,*5F
1512587318.68,24092,3.5,73460.8,-5.51,-6.05,-6.05,0,*5C
1512587319.87,24093,3.5,73456.5,-5.51,-6.13,-6.13,0,*5D
1512587321.13,24094,3.5,73458.5,-5.53,-6.09,-6.19,0,*59
1512587322.4,24095,3.5,73466.8,-5.53,-6.19,-6.23,0,*50
1512587323.6,24096,3.5,73460.5,-5.51,-6.13,-6.05,0,*5F
1512587324.82,24097,3.5,73454.0,-5.53,-6.09,-6.09,0,*5B
1512587326.05,24098,3.5,73450.3,-5.51,-6.19,-6.13,0,*5C
1512587327.24,24099,3.5,73470.8,-5.51,-6.13,-6.13,0,*57
1512587328.47,24100,3.5,73452.0,-5.51,-6.19,-6.13,0,*5C